Location: Br�znic
(45.9167°N, 22.6500°E)
Time: 12:53:33
(UTC+00:00)

CZ-4B R/B - Pass Details

Date: 03 March 2021
Orbit: 388 x 455 km, 97.6° (Epoch: 11 April)

Event Time Altitude Azimuth Distance (km) Brightness Sun altitude
Rises 17:06:58 0° 6° (N) 2,293 4.9 -9.2°
Reaches altitude 10° 17:08:59 10° 359° (N) 1,434 4.0 -9.5°
Maximum altitude 17:11:53 42° 287° (WNW) 576 2.6 -10.0°
Drops below altitude 10° 17:14:48 10° 215° (SW) 1,439 4.4 -10.5°
Sets 17:16:50 0° 208° (SSW) 2,300 5.4 -10.9°
